This demonstration page uses our WeatherBlox Daily Observations layout. Learn more.

Left ArrowRight Arrow

36.17497, -115.13722

Hourly Observations for October 16, 2016

Temp ( °F °C ) Dew Point ( °F °C ) Humidity (%) Winds ( mph kmh ) Pressure ( in mb ) Visibility ( mi km ) Precip ( " mm )
12:53 am 00:53 Clear 74 23.3 50 10 43 43 SW 29 46 29.77 1008 10 16.0934 0 0
1:53 am 01:53 Clear 73 22.8 49 9.4 43 43 SW 30 48 29.76 1008 10 16.0934 0 0
2:53 am 02:53 Clear 73 22.8 48 8.9 41 41 SW 29 46 29.77 1008 10 16.0934 0 0
3:53 am 03:53 Clear 72 22.2 47 8.3 41 41 SW 33 54 29.73 1007 10 16.0934 0 0
4:53 am 04:53 Clear 71 21.7 48 8.9 44 44 SSW 33 54 29.76 1008 10 16.0934 0 0
5:53 am 05:53 Clear 70 21.1 48 8.9 46 46 SW 30 48 29.78 1008 10 16.0934 0 0
6:53 am 06:53 Sunny 70 21.1 47 8.3 44 44 SW 20 31 29.8 1009 10 16.0934 0 0
7:53 am 07:53 Sunny 70 21.1 47 8.3 44 44 S 15 24 29.83 1010 10 16.0934 0 0
8:53 am 08:53 Sunny 73 22.8 47 8.3 40 40 SSW 18 30 29.84 1011 10 16.0934 0 0
9:53 am 09:53 Sunny 76 24.4 46 7.8 35 35 SW 22 35 29.83 1010 10 16.0934 0 0
10:53 am 10:53 Sunny 78 25.6 45 7.2 31 31 SW 30 48 29.8 1009 10 16.0934 0 0
11:53 am 11:53 Sunny 80 26.7 44 6.7 28 28 SW 28 44 29.8 1009 10 16.0934 0 0
12:53 pm 12:53 Sunny 81 27.2 44 6.7 27 27 SW 25 41 29.75 1008 10 16.0934 0 0
1:53 pm 13:53 Sunny 80 26.7 42 5.6 26 26 SSW 28 44 29.73 1007 10 16.0934 0 0
2:53 pm 14:53 Sunny 82 27.8 41 5 23 23 SSW 24 39 29.73 1007 10 16.0934 0 0
3:53 pm 15:53 Sunny 82 27.8 40 4.4 22 22 SSW 25 41 29.72 1006 10 16.0934 0 0
4:53 pm 16:53 Sunny 82 27.8 41 5 23 23 SSW 16 26 29.72 1006 10 16.0934 0 0
5:53 pm 17:53 Sunny 80 26.7 36 2.2 20 20 S 16 26 29.71 1006 10 16.0934 0 0
6:53 pm 18:53 Clear 78 25.6 35 1.7 21 21 SSW 13 20 29.71 1006 10 16.0934 0 0
7:53 pm 19:53 Clear 77 25 36 2.2 23 23 SSW 9 15 29.72 1006 10 16.0934 0 0
8:53 pm 20:53 Clear 75 23.9 38 3.3 26 26 SSW 14 22 29.72 1007 10 16.0934 0 0
9:53 pm 21:53 Clear 74 23.3 39 3.9 28 28 S 21 33 29.71 1006 10 16.0934 0 0
10:53 pm 22:53 Clear 73 22.8 40 4.4 30 30 S 22 35 29.71 1006 10 16.0934 0 0
11:53 pm 23:53 Clear 71 21.7 41 5 34 34 S 24 39 29.7 1006 10 16.0934 0 0

Powered by AerisWeather